DW0326 Weather Reports


time (UTC)temp
C
wind
direction
speed
KPH
gust
KPH
rain 1hr
cm
rain 24hr
cm
rain mn
cm
humidity
%
barometer
mb
20260505194625 28 207 9.7 27.4 0.00 0.00 0.00 81 1004.4
20260505193726 28 197 11.3 27.4 0.00 0.00 0.00 81 1004.4
20260505191925 27 200 4.8 24.1 0.00 0.00 0.00 84 1004.6
20260505191025 27 194 9.7 24.1 0.00 0.00 0.00 84 1004.8
20260505190125 27 193 6.4 25.7 0.00 0.00 0.00 84 1004.8
20260505185225 27 215 4.8 19.3 0.00 0.00 0.00 84 1004.9
20260505184325 27 209 3.2 17.7 0.00 0.00 0.00 84 1004.9
20260505183425 27 221 4.8 17.7 0.00 0.00 0.00 85 1004.9
20260505182525 27 204 8.0 19.3 0.00 0.00 0.00 85 1004.9
20260505181625 27 203 9.7 27.4 0.00 0.00 0.00 84 1004.9
20260505180725 27 197 8.0 22.5 0.00 0.00 0.00 85 1005.1
20260505175825 26 200 6.4 24.1 0.00 0.00 0.00 85 1005.1
20260505174924 26 197 9.7 22.5 0.00 0.00 0.00 85 1005.4
20260505174025 26 195 11.3 27.4 0.00 0.00 0.00 85 1005.4
20260505173124 26 224 4.8 24.1 0.00 0.00 0.00 85 1005.4
20260505172225 26 190 4.8 22.5 0.00 0.00 0.00 86 1005.4
20260505170425 26 199 8.0 19.3 0.00 0.00 0.00 86 1005.5
20260505164624 26 196 6.4 17.7 0.00 0.00 0.00 86 1005.5
20260505163724 26 194 4.8 19.3 0.00 0.00 0.00 87 1005.5
20260505162825 26 216 6.4 19.3 0.00 0.00 0.00 87 1005.5
20260505161925 26 211 8.0 24.1 0.00 0.00 0.00 87 1005.4
20260505161025 26 205 8.0 24.1 0.00 0.00 0.00 86 1005.3
20260505160124 26 200 8.0 24.1 0.00 0.00 0.00 87 1005.3
20260505152525 25 205 4.8 19.3 0.00 0.00 0.00 87 1005.0
20260505150725 25 192 8.0 24.1 0.00 0.00 0.00 88 1004.9
20260505140425 24 196 8.0 19.3 0.00 0.00 0.00 91 1005.1
20260505130124 23 199 3.2 19.3 0.00 0.00 0.00 93 1004.9
20260505124324 23 184 3.2 16.1 0.00 0.00 0.00 93 1004.8
20260505123424 22 184 6.4 16.1 0.00 0.00 0.00 94 1004.6
20260505122525 22 174 3.2 17.7 0.00 0.00 0.00 93 1004.1
20260505121624 22 183 3.2 17.7 0.00 0.00 0.00 93 1004.1
20260505115825 22 189 3.2 12.9 0.00 0.00 0.00 93 1004.4
20260505114924 22 174 0.0 9.7 0.00 0.00 0.00 93 1004.5
20260505114025 22 177 1.6 14.5 0.00 0.00 0.00 93 1004.3
20260505113124 22 186 3.2 14.5 0.00 0.00 0.00 93 1004.3